| time (UTC) | temp F | wind direction | speed MPH | gust MPH | rain 1hr in | rain 24hr in | rain mn in | humidity % | barometer mb |
| 20260502123001 | 84 | 132 | 0.0 | 2.0 | 0.00 | 0.00 | 0.00 | 23 | 1009.8 |
| 20260502121501 | 90 | 190 | 2.0 | 4.0 | 0.00 | 0.00 | 0.00 | 18 | 1009.9 |
| 20260502114501 | 90 | 127 | 0.0 | 4.0 | 0.00 | 0.00 | 0.00 | 16 | 1010.3 |
| 20260502113002 | 94 | 170 | 2.0 | 3.0 | 0.00 | 0.00 | 0.00 | 14 | 1010.5 |
| 20260502111501 | 92 | 153 | 2.0 | 4.0 | 0.00 | 0.00 | 0.00 | 14 | 1010.7 |
| 20260502110001 | 91 | 168 | 0.0 | 5.0 | 0.00 | 0.00 | 0.00 | 16 | 1011.0 |
| 20260502104501 | 87 | 251 | 1.0 | 4.0 | 0.00 | 0.00 | 0.00 | 21 | 1010.9 |
| 20260502103001 | 81 | 282 | 0.0 | 4.0 | 0.00 | 0.00 | 0.00 | 21 | 1011.2 |
| 20260502101501 | 80 | 115 | 0.0 | 3.0 | 0.00 | 0.00 | 0.00 | 22 | 1011.6 |
| 20260502091501 | 76 | 216 | 1.0 | 4.0 | 0.00 | 0.00 | 0.00 | 25 | 1012.1 |
| 20260502071501 | 63 | 209 | 1.0 | 4.0 | 0.00 | 0.00 | 0.00 | 38 | 1012.5 |
| 20260502070001 | 63 | 110 | 1.0 | 3.0 | 0.00 | 0.00 | 0.00 | 38 | 1012.7 |
| 20260502064501 | 62 | 283 | 0.0 | 4.0 | 0.00 | 0.00 | 0.00 | 39 | 1012.6 |
| 20260502063001 | 62 | 271 | 0.0 | 4.0 | 0.00 | 0.00 | 0.00 | 40 | 1012.8 |
| 20260502061501 | 62 | 157 | 2.0 | 4.0 | 0.00 | 0.00 | 0.00 | 42 | 1012.9 |
| 20260502060001 | 59 | 119 | 0.0 | 2.0 | 0.00 | 0.00 | 0.00 | 49 | 1012.7 |
| 20260502054501 | 58 | 262 | 0.0 | 2.0 | 0.00 | 0.00 | 0.00 | 50 | 1013.0 |
| 20260502053001 | 56 | 279 | 0.0 | 3.0 | 0.00 | 0.00 | 0.00 | 53 | 1013.0 |
| 20260502051501 | 55 | 297 | 0.0 | 2.0 | 0.00 | 0.00 | 0.00 | 56 | 1013.1 |
| 20260502050002 | 54 | 165 | 0.0 | 1.0 | 0.00 | 0.00 | 0.00 | 57 | 1012.6 |
| 20260502044501 | 54 | 55 | 0.0 | 2.0 | 0.00 | 0.00 | 0.00 | 57 | 1012.5 |
| 20260502043001 | 54 | 280 | 0.0 | 2.0 | 0.00 | 0.00 | 0.00 | 58 | 1012.6 |
| 20260502041501 | 53 | 203 | 0.0 | 1.0 | 0.00 | 0.00 | 0.00 | 59 | 1012.6 |
| 20260502040001 | 53 | 270 | 0.0 | 1.0 | 0.00 | 0.00 | 0.00 | 59 | 1012.7 |
| 20260502034501 | 53 | 125 | 0.0 | 2.0 | 0.00 | 0.00 | 0.00 | 59 | 1012.7 |
| 20260502033001 | 53 | 0 | 0.0 | 0.0 | 0.00 | 0.00 | 0.00 | 59 | 1013.0 |
| 20260502031501 | 53 | 135 | 0.0 | 1.0 | 0.00 | 0.00 | 0.00 | 59 | 1013.1 |
| 20260502030001 | 54 | 0 | 0.0 | 0.0 | 0.00 | 0.00 | 0.00 | 57 | 1013.3 |
| 20260502024502 | 54 | 0 | 0.0 | 0.0 | 0.00 | 0.00 | 0.00 | 57 | 1013.3 |
| 20260502023001 | 54 | 0 | 0.0 | 0.0 | 0.00 | 0.00 | 0.00 | 56 | 1013.4 |
| 20260502021501 | 54 | 0 | 0.0 | 0.0 | 0.00 | 0.00 | 0.00 | 54 | 1013.3 |
| 20260502020001 | 55 | 0 | 0.0 | 0.0 | 0.00 | 0.00 | 0.00 | 53 | 1013.2 |
| 20260502014501 | 55 | 124 | 0.0 | 2.0 | 0.00 | 0.00 | 0.00 | 52 | 1013.3 |
| 20260502013002 | 55 | 46 | 0.0 | 1.0 | 0.00 | 0.00 | 0.00 | 52 | 1013.5 |
| 20260502011501 | 55 | 0 | 0.0 | 0.0 | 0.00 | 0.00 | 0.00 | 52 | 1013.7 |
| 20260502010002 | 55 | 0 | 0.0 | 0.0 | 0.00 | 0.00 | 0.00 | 52 | 1013.6 |
| 20260502004501 | 56 | 0 | 0.0 | 0.0 | 0.00 | 0.00 | 0.00 | 51 | 1013.6 |
| 20260502003001 | 56 | 0 | 0.0 | 0.0 | 0.00 | 0.00 | 0.00 | 50 | 1014.0 |
| 20260502001501 | 57 | 0 | 0.0 | 0.0 | 0.00 | 0.00 | 0.00 | 48 | 1014.2 |
| 20260502000001 | 57 | 0 | 0.0 | 0.0 | 0.00 | 0.00 | 0.00 | 46 | 1014.5 |
| 20260501234501 | 57 | 0 | 0.0 | 0.0 | 0.00 | 0.00 | 0.00 | 45 | 1014.3 |
| 20260501233001 | 58 | 0 | 0.0 | 0.0 | 0.00 | 0.00 | 0.00 | 44 | 1014.4 |
| 20260501231501 | 58 | 0 | 0.0 | 0.0 | 0.00 | 0.00 | 0.00 | 43 | 1014.6 |
| 20260501230002 | 59 | 124 | 0.0 | 1.0 | 0.00 | 0.00 | 0.00 | 43 | 1014.3 |
| 20260501224501 | 59 | 0 | 0.0 | 0.0 | 0.00 | 0.00 | 0.00 | 43 | 1014.7 |
| 20260501223002 | 59 | 0 | 0.0 | 0.0 | 0.00 | 0.00 | 0.00 | 42 | 1014.7 |
| 20260501221501 | 59 | 0 | 0.0 | 0.0 | 0.00 | 0.00 | 0.00 | 41 | 1014.6 |
| 20260501220002 | 60 | 0 | 0.0 | 0.0 | 0.00 | 0.00 | 0.00 | 40 | 1014.7 |
| 20260501214501 | 60 | 0 | 0.0 | 0.0 | 0.00 | 0.00 | 0.00 | 39 | 1014.7 |
| 20260501213001 | 61 | 0 | 0.0 | 0.0 | 0.00 | 0.00 | 0.00 | 37 | 1014.7 |
| 20260501211501 | 61 | 0 | 0.0 | 0.0 | 0.00 | 0.00 | 0.00 | 35 | 1014.8 |
| 20260501210002 | 62 | 0 | 0.0 | 0.0 | 0.00 | 0.00 | 0.00 | 33 | 1014.8 |
| 20260501204501 | 63 | 135 | 0.0 | 1.0 | 0.00 | 0.00 | 0.00 | 31 | 1014.8 |
| 20260501203001 | 64 | 0 | 0.0 | 0.0 | 0.00 | 0.00 | 0.00 | 29 | 1014.8 |
| 20260501201501 | 64 | 0 | 0.0 | 0.0 | 0.00 | 0.00 | 0.00 | 28 | 1014.8 |
| 20260501200001 | 65 | 0 | 0.0 | 0.0 | 0.00 | 0.00 | 0.00 | 28 | 1014.6 |
| 20260501194501 | 66 | 0 | 0.0 | 0.0 | 0.00 | 0.00 | 0.00 | 26 | 1014.8 |
| 20260501193001 | 67 | 0 | 0.0 | 0.0 | 0.00 | 0.00 | 0.00 | 22 | 1014.6 |
| 20260501191501 | 68 | 0 | 0.0 | 0.0 | 0.00 | 0.00 | 0.00 | 20 | 1014.6 |
| 20260501190001 | 70 | 46 | 0.0 | 1.0 | 0.00 | 0.00 | 0.00 | 18 | 1014.5 |
| 20260501184502 | 72 | 234 | 0.0 | 3.0 | 0.00 | 0.00 | 0.00 | 14 | 1014.6 |
| 20260501183001 | 72 | 61 | 0.0 | 2.0 | 0.00 | 0.00 | 0.00 | 13 | 1014.5 |
| 20260501181501 | 73 | 96 | 0.0 | 2.0 | 0.00 | 0.00 | 0.00 | 13 | 1014.5 |
| 20260501180002 | 73 | 333 | 0.0 | 5.0 | 0.00 | 0.00 | 0.00 | 16 | 1014.6 |
| 20260501174502 | 74 | 29 | 1.0 | 4.0 | 0.00 | 0.00 | 0.00 | 15 | 1014.5 |
| 20260501173002 | 74 | 304 | 1.0 | 5.0 | 0.00 | 0.00 | 0.00 | 15 | 1014.5 |
| 20260501171502 | 75 | 309 | 1.0 | 4.0 | 0.00 | 0.00 | 0.00 | 15 | 1014.5 |
| 20260501170002 | 75 | 293 | 3.0 | 5.0 | 0.00 | 0.00 | 0.00 | 15 | 1014.4 |
| 20260501164501 | 75 | 297 | 0.0 | 8.0 | 0.00 | 0.00 | 0.00 | 15 | 1014.4 |
| 20260501163001 | 75 | 11 | 1.0 | 6.0 | 0.00 | 0.00 | 0.00 | 15 | 1014.6 |
| 20260501161502 | 75 | 337 | 1.0 | 8.0 | 0.00 | 0.00 | 0.00 | 13 | 1014.8 |
| 20260501160002 | 76 | 305 | 2.0 | 9.0 | 0.00 | 0.00 | 0.00 | 13 | 1014.7 |
| 20260501154501 | 76 | 283 | 2.0 | 4.0 | 0.00 | 0.00 | 0.00 | 13 | 1014.8 |
| 20260501153001 | 75 | 299 | 2.0 | 8.0 | 0.00 | 0.00 | 0.00 | 14 | 1015.0 |
| 20260501151501 | 75 | 302 | 1.0 | 6.0 | 0.00 | 0.00 | 0.00 | 14 | 1015.4 |
| 20260501150001 | 76 | 354 | 2.0 | 8.0 | 0.00 | 0.00 | 0.00 | 14 | 1015.4 |